Погода в Михалеве

Россия / Ивановская область     56°46′05″N   41°12′49″E
темп.,
°C
ветер,
м/с
пор.,
м/с
влажн.,
%
обл.,
%
осадки,
мм/ч
давл.,
гПа
погр.,
м
17 апреля, сб
сб1700:00+6всв4128032 0.0 1026400
03:00+5всв4128492 0.0 1026359
06:00+4всв4128258 0.0 1026374
09:00+9всв59615 0.0 1026549
12:00+13всв68485 0.0 1026950
15:00+14всв68405 0.0 10251113
18:00+12всв510455 0.0 1024965
21:00+8всв5136038 0.0 1025510
18 апреля, вс
вс1800:00+6всв4146941 0.0 1025475
03:00+4всв4147430 0.0 1025443
06:00+3всв513775 0.0 1025421
09:00+8всв611563 0.0 1025849
12:00+12в68415 0.0 10241554
15:00+13всв683763 0.0 10241911
18:00+12всв594793 0.0 10241187
21:00+8всв61371100 0.0 1026615
19 апреля, пн
пн1900:00+5всв5128090 0.0 1027537
03:00+3всв41080100 0.0 1028432
06:00+3всв41074100 0.0 1028482
09:00+5всв595899 0.0 1028715
12:00+8в585086 0.0 10281118
15:00+9в584771 0.0 10281387
18:00+8в59435 0.0 10271274
21:00+5в4135012 0.0 1028565
20 апреля, вт
вт2000:00+2в4125882 0.0 1028482
03:00+1в4126096 0.0 1028509
06:00+1в51265100 0.0 1027558
09:00+5в6105899 0.0 1026735
12:00+7вюв61156100 0.0 10241004
15:00+12вюв71249100 0.0 10211486
18:00+10вюв71454100 0.0 10191321
21:00+8вюв81760100 0.0 10171171
21 апреля, ср
ср2100:00+7вюв81774100 0.3 1013966
03:00+6вюв81885100 2.9 10111103
06:00+5вюв71791100 4.0 10091144
09:00+7юв71589100 6.1 10081117
12:00+8юв81788100 0.3 10071358
15:00+9ююв61585100 0.5 10081653
18:00+7ю61277100 0.2 10111305
21:00+7ююв51377100 0.2 1013754